Погода в Хонгурее

Россия / Ненецкий автономный округ     67°33′27″N   51°57′19″E
темп.,
°C
ветер,
м/с
пор.,
м/с
влажн.,
%
обл.,
%
осадки,
мм/ч
давл.,
гПа
погр.,
м
15 апреля, чт
чт1500:00−2з916875 0.0 1006620
03:00−3з9178528 0.0 1007642
06:00−3з11188758 0.0 1008876
09:00−4сз7118371 0.1 1012648
12:00−4ссз6876100 0.0 1017897
15:00−4с567180 0.0 1021890
18:00−6сз22835 0.0 102440
21:00−8ююз34885 0.0 102457
16 апреля, пт
пт1600:00−6ююз61195100 0.1 1023252
03:00−2зсз7108596 0.4 1022576
06:00−3з61195100 0.1 1023623
09:00−3сз7118083 0.2 10241140
12:00−3сз9137126 0.0 10261277
15:00−4ссз797129 0.0 1029995
18:00−6сз2482100 0.0 1030240
21:00−7зюз2385100 0.0 102970
17 апреля, сб
сб1700:00−6ююз61088100 0.1 1026435
03:00−1зсз91584100 0.8 1021693
06:00−2з61196100 0.6 1019484
09:000сз81295100 1.7 1017819
12:000сз9139299 0.7 10181085
15:00−1ссз9137644 1.1 10201162
18:00−4ссз8148479 0.0 1023527
21:00−6ссв510895 0.1 1028314
18 апреля, вс
вс1800:00−9ссв49905 0.0 1032218
03:00−11ссв36915 0.0 1035129
06:00−9с22875 0.0 103799
09:00−7сз228455 0.0 1038285
12:00−5зсз337970 0.0 1039570
15:00−5зсз33767 0.0 1039511
18:00−6зюз228796 0.0 103852
21:00−7юз3487100 0.0 1036101
19 апреля, пн
пн1900:00−6ююз368681 0.0 1035145
03:00−8юз478799 0.0 1034108
06:00−5зюз4982100 0.0 1032170
09:00−1зюз5118398 0.0 1030333
12:00+1з6139231 0.0 1029496
15:00+2з6129233 0.0 1029544
18:000зсз4894100 0.0 1028250
21:00−1зсз3694100 0.0 1028124